Temp
11 11 11 11 11 11 11 10 11 11 12 11 11 11 10 11 11 11 11 11 10 9 9 9 9 9 9 8 9 9 9 9 9 8 8 8 8 9 8 8 8 9 9 9 9 9 8 8 8
11 11 12 12 11 11 10 10 11 11 11 11 10 11 11 11 11 11 11 11 10 9 9 9 9 9 9 8 9 8 8 8 8 8 8 8 8 8 8 8 8 8 9 9 9 8 8 8 8
11 12 12 11 11 10 10 10 11 11 11 10 10 11 11 11 11 11 11 10 10 10 9 9 9 9 9 9 9 9 8 8 9 8 8 8 8 8 8 8 8 9 9 9 9 8 8 8 8
11 11 11 11 11 10 10 10 10 10 10 11 11 11 10 11 11 11 10 10 10 10 9 9 9 9 9 9 9 9 9 8 9 8 9 9 8 8 8 8 9 9 9 9 8 8 8 8 8
11 11 12 11 10 10 10 10 10 10 10 10 11 11 11 10 10 9 9 10 10 10 9 9 9 8 9 8 9 8 9 9 9 8 9 9 9 8 9 8 9 9 9 9 8 8 8 8 8
11 11 11 11 10 10 10 10 11 11 10 10 11 10 11 11 10 9 9 9 10 9 9 9 8 8 8 8 8 8 8 8 9 8 8 9 9 9 9 9 9 9 9 9 9 8 8 8 8
11 11 9 9 9 9 10 10 10 10 10 10 10 10 10 11 10 9 9 9 9 9 9 8 8 8 8 8 8 8 8 8 8 8 9 9 9 9 9 9 9 9 9 9 8 8 7 7 8
11 10 10 10 10 10 10 10 10 10 10 10 10 10 10 10 10 9 9 9 9 9 9 8 8 8 8 8 8 8 8 8 8 8 8 9 9 9 9 9 9 9 9 9 8 8 7 7 8
11 11 11 12 12 11 11 10 9 10 10 10 10 10 10 10 9 9 9 9 8 8 8 8 8 7 7 7 8 8 8 8 8 8 8 8 8 9 9 9 9 9 9 8 8 8 8 7 8
11 11 11 11 11 11 10 11 10 10 10 10 10 10 10 10 9 9 9 9 9 8 8 8 8 8 7 7 8 8 8 8 8 8 8 8 9 9 9 9 9 9 9 8 8 8 8 8 7
11 11 11 10 10 9 10 10 10 10 10 10 10 10 10 10 9 9 9 9 9 9 8 8 8 8 8 7 7 7 8 8 8 8 8 8 9 9 9 9 9 9 9 8 8 8 8 8 7
12 11 10 10 10 10 10 9 9 10 10 9 9 9 10 10 9 9 9 9 9 8 8 8 8 8 8 8 7 7 7 7 8 8 8 9 8 9 9 9 9 9 9 8 8 9 8 8 8
11 10 10 10 10 9 9 9 9 10 9 10 9 9 9 9 9 9 9 9 8 9 8 8 8 8 8 7 7 7 7 7 7 8 8 8 8 9 9 9 9 9 9 8 8 8 8 8 9
11 11 10 10 11 10 10 10 9 10 10 10 9 9 9 9 9 8 8 8 8 8 9 8 8 7 7 7 7 7 7 7 7 7 7 8 8 9 9 9 10 9 9 8 8 8 8 8 9
11 11 11 10 10 10 10 8 8 9 9 10 9 9 9 9 9 8 8 8 8 8 9 9 8 8 7 6 7 7 7 7 7 7 7 7 8 8 9 9 9 9 9 8 8 8 8 8 9
11 11 10 10 10 9 9 9 9 9 10 9 9 9 9 9 8 8 8 8 8 8 8 8 8 8 8 8 7 7 7 7 6 7 7 8 8 8 9 9 9 9 9 9 9 8 9 9 10
11 11 11 11 11 10 9 9 9 9 9 10 10 10 10 9 8 8 8 8 8 8 8 8 8 8 8 8 8 8 8 8 7 7 8 8 8 8 9 9 9 9 9 9 9 9 9 9 10
12 11 12 11 11 10 10 10 9 9 9 9 10 10 11 10 9 8 8 8 8 7 8 8 8 8 9 9 9 9 9 8 8 8 8 8 8 8 8 9 9 9 9 9 9 9 9 10 10
11 12 12 12 11 11 11 11 11 10 10 10 9 9 11 11 10 9 8 8 8 8 8 8 9 8 9 9 9 9 9 8 8 8 8 8 8 8 9 8 8 8 9 9 9 9 10 9 10
12 12 12 12 12 11 10 11 11 11 11 11 10 9 10 11 11 10 9 9 8 8 8 8 9 9 9 8 8 8 8 8 8 8 8 8 8 8 8 8 8 8 9 9 9 9 9 9 9
12 13 13 12 12 11 10 12 12 12 12 11 10 9 9 10 11 10 9 10 9 8 8 8 8 8 9 9 8 8 8 8 8 8 8 8 8 8 8 8 8 8 9 9 9 9 9 9 9
13 13 13 12 12 11 11 11 13 13 13 12 11 10 10 10 10 10 10 10 9 9 8 9 9 8 8 9 9 9 9 8 8 7 8 8 8 9 8 9 9 9 8 8 9 9 9 9 9
14 13 13 13 11 11 12 11 13 13 14 14 13 12 11 11 10 11 10 10 9 9 8 8 8 9 9 9 9 9 9 8 8 7 7 8 8 9 9 9 8 8 8 8 8 8 8 8 9
13 13 13 11 10 9 12 11 14 14 14 14 13 13 13 12 12 11 11 10 9 9 8 8 8 8 8 8 9 9 9 9 8 8 8 8 8 8 9 9 8 8 8 8 8 9 9 9 9
13 13 11 8 7 7 12 10 14 15 14 14 14 14 14 13 12 12 11 11 10 10 9 9 8 8 8 8 8 8 9 9 9 8 8 8 8 8 8 8 8 8 8 8 9 9 9 9 9
14 14 13 9 6 10 10 11 15 15 15 15 14 14 13 12 12 12 11 11 11 10 10 9 8 8 8 8 8 8 8 8 9 8 8 8 8 8 8 8 8 9 9 9 10 10 10 10 9
14 14 14 13 10 10 11 14 14 16 16 15 15 14 14 13 12 12 12 12 11 11 11 10 8 9 8 8 8 8 8 8 8 9 8 8 8 8 7 8 8 9 9 9 10 9 9 9 9
14 14 13 13 9 9 12 14 15 16 16 15 14 14 14 13 13 12 12 11 11 11 10 10 10 9 9 8 8 8 8 8 8 8 8 8 8 7 8 8 7 8 9 9 9 9 9 9 9
14 14 14 14 13 7 7 13 15 15 15 15 14 14 14 13 12 12 12 11 11 11 10 10 10 9 9 8 8 8 8 8 8 8 8 8 8 8 7 8 8 8 8 8 9 9 8 9 9
14 14 15 14 12 13 12 14 15 15 15 15 14 14 14 14 13 12 12 12 11 11 10 10 10 10 9 9 8 8 8 8 8 8 8 8 8 8 8 8 8 8 8 8 8 9 8 8 9
Height
3162 3161 3161 3162 3166 3163 3164 3167 3167 3167 3168 3168 3169 3169 3171 3171 3172 3176 3172 3173 3176 3177 3180 3182 3185 3186 3188 3190 3191 3192 3194 3195 3196 3198 3199 3201 3203 3204 3205 3206 3206 3206 3207 3208 3208 3209 3210 3210 3211
3162 3162 3162 3161 3164 3162 3165 3167 3168 3168 3169 3168 3169 3169 3170 3171 3171 3172 3173 3175 3177 3180 3182 3184 3182 3187 3189 3191 3192 3192 3194 3195 3197 3198 3199 3202 3204 3206 3206 3207 3208 3209 3209 3210 3210 3211 3212 3213 3213
3162 3162 3162 3162 3163 3163 3165 3167 3168 3168 3169 3169 3169 3169 3169 3169 3169 3171 3173 3176 3178 3180 3182 3184 3186 3188 3190 3192 3193 3193 3194 3196 3198 3199 3200 3203 3206 3206 3207 3209 3210 3211 3211 3212 3212 3213 3213 3214 3215
3162 3162 3163 3163 3162 3165 3165 3167 3168 3170 3170 3170 3170 3169 3167 3166 3167 3170 3173 3176 3179 3180 3182 3184 3186 3188 3191 3192 3193 3194 3196 3198 3199 3200 3202 3205 3206 3207 3209 3211 3211 3213 3214 3214 3215 3215 3215 3216 3217
3162 3161 3160 3160 3162 3164 3166 3168 3169 3170 3170 3170 3170 3168 3166 3165 3166 3169 3173 3176 3179 3180 3183 3185 3186 3188 3191 3192 3194 3194 3196 3198 3200 3202 3204 3206 3207 3208 3211 3212 3214 3215 3216 3216 3217 3217 3218 3219 3219
3163 3161 3157 3155 3160 3162 3165 3166 3169 3170 3170 3171 3170 3168 3167 3166 3167 3169 3172 3176 3178 3180 3183 3185 3187 3189 3191 3193 3193 3191 3196 3199 3201 3203 3206 3207 3209 3211 3212 3213 3216 3217 3218 3219 3220 3220 3221 3221 3221
3163 3160 3155 3155 3159 3161 3164 3167 3168 3170 3171 3172 3171 3170 3168 3167 3168 3170 3173 3175 3177 3180 3182 3185 3186 3190 3191 3193 3193 3189 3197 3199 3201 3204 3207 3209 3210 3213 3213 3215 3217 3219 3220 3222 3223 3223 3224 3224 3224
3163 3161 3158 3158 3160 3163 3165 3166 3168 3171 3172 3171 3172 3171 3170 3169 3169 3171 3173 3174 3177 3179 3182 3184 3186 3189 3192 3193 3193 3195 3198 3200 3203 3205 3208 3210 3212 3214 3216 3218 3219 3220 3222 3225 3226 3227 3227 3227 3228
3164 3163 3161 3162 3161 3163 3166 3166 3168 3170 3172 3172 3173 3171 3173 3172 3172 3174 3174 3174 3176 3178 3181 3184 3186 3188 3191 3193 3195 3197 3199 3201 3205 3206 3208 3211 3213 3215 3218 3220 3221 3221 3224 3227 3227 3230 3229 3230 3231
3164 3163 3163 3163 3163 3163 3164 3166 3169 3172 3173 3174 3173 3173 3173 3174 3174 3175 3175 3174 3175 3177 3180 3182 3184 3187 3190 3192 3195 3198 3200 3203 3205 3208 3209 3212 3215 3217 3219 3222 3223 3223 3226 3228 3228 3231 3231 3232 3233
3164 3165 3164 3163 3162 3162 3164 3166 3169 3171 3173 3175 3175 3175 3175 3175 3176 3176 3177 3177 3178 3180 3181 3182 3184 3185 3188 3191 3193 3197 3200 3204 3206 3209 3212 3214 3217 3220 3222 3223 3225 3226 3228 3230 3231 3233 3233 3234 3235
3165 3165 3165 3164 3163 3163 3164 3167 3168 3172 3173 3175 3176 3177 3177 3177 3177 3177 3179 3180 3181 3181 3182 3183 3183 3185 3187 3190 3193 3197 3201 3202 3207 3210 3213 3216 3219 3222 3223 3225 3227 3229 3230 3233 3233 3235 3235 3235 3235
3165 3165 3166 3165 3165 3164 3166 3167 3169 3170 3172 3174 3175 3176 3178 3178 3179 3179 3181 3182 3182 3182 3182 3182 3182 3183 3185 3188 3191 3194 3200 3203 3207 3210 3214 3216 3220 3222 3224 3226 3228 3231 3233 3235 3236 3236 3237 3237 3237
3166 3166 3167 3166 3166 3165 3166 3166 3168 3169 3171 3173 3175 3176 3178 3179 3180 3181 3182 3183 3183 3182 3182 3181 3181 3181 3182 3186 3189 3195 3199 3204 3207 3209 3214 3217 3221 3222 3225 3228 3231 3232 3234 3237 3238 3238 3239 3239 3239
3166 3168 3166 3165 3165 3165 3165 3166 3165 3167 3170 3172 3173 3175 3177 3178 3179 3181 3182 3183 3184 3183 3183 3183 3181 3182 3183 3187 3190 3194 3198 3203 3206 3209 3214 3217 3220 3222 3225 3228 3231 3233 3236 3237 3238 3239 3240 3240 3241
3167 3167 3166 3166 3165 3165 3165 3165 3164 3165 3168 3169 3171 3173 3175 3177 3178 3180 3181 3183 3184 3184 3183 3184 3184 3184 3187 3189 3191 3195 3199 3202 3205 3209 3212 3216 3219 3222 3225 3227 3231 3233 3236 3238 3239 3240 3242 3242 3242
3166 3167 3166 3166 3165 3164 3165 3163 3163 3163 3166 3169 3170 3172 3173 3174 3175 3178 3180 3182 3184 3184 3184 3186 3187 3187 3188 3191 3194 3197 3199 3202 3205 3209 3212 3216 3219 3221 3224 3227 3231 3233 3235 3238 3239 3241 3242 3243 3244
3166 3167 3166 3165 3163 3162 3162 3163 3162 3161 3162 3165 3168 3169 3171 3173 3174 3177 3179 3181 3184 3184 3184 3185 3188 3189 3190 3192 3195 3197 3200 3203 3205 3209 3212 3215 3218 3220 3223 3226 3230 3232 3234 3237 3239 3241 3242 3242 3243
3165 3165 3165 3163 3161 3160 3161 3161 3161 3161 3161 3162 3163 3164 3168 3171 3173 3175 3178 3180 3182 3183 3184 3185 3187 3190 3191 3194 3197 3198 3200 3203 3206 3209 3211 3214 3217 3219 3222 3225 3229 3231 3233 3236 3238 3239 3241 3241 3242
3164 3164 3163 3163 3161 3160 3160 3159 3160 3159 3159 3160 3161 3162 3164 3167 3170 3172 3175 3179 3181 3182 3183 3185 3187 3189 3191 3193 3196 3199 3200 3203 3206 3208 3211 3213 3216 3218 3221 3224 3227 3229 3232 3235 3236 3238 3239 3239 3239
3163 3162 3161 3163 3161 3160 3158 3157 3156 3155 3155 3156 3157 3158 3160 3164 3168 3171 3173 3176 3179 3181 3183 3184 3186 3189 3191 3192 3195 3197 3200 3202 3205 3208 3211 3213 3215 3217 3220 3222 3225 3228 3230 3232 3234 3235 3237 3237 3238
3160 3160 3158 3158 3159 3160 3160 3156 3152 3151 3150 3149 3151 3153 3155 3159 3163 3168 3172 3174 3177 3181 3182 3184 3185 3187 3189 3191 3193 3197 3200 3203 3206 3208 3210 3212 3214 3216 3217 3219 3222 3225 3227 3230 3231 3233 3235 3235 3236
3157 3157 3155 3156 3157 3158 3158 3157 3149 3149 3147 3144 3146 3147 3150 3153 3158 3163 3168 3172 3175 3179 3181 3183 3184 3185 3188 3190 3192 3195 3198 3201 3203 3206 3208 3211 3213 3214 3215 3216 3217 3222 3224 3227 3229 3230 3232 3232 3233
3155 3154 3154 3155 3157 3157 3153 3155 3145 3144 3145 3143 3142 3144 3146 3148 3153 3159 3164 3169 3172 3174 3176 3180 3182 3184 3186 3189 3191 3192 3196 3199 3201 3203 3206 3208 3210 3211 3213 3214 3216 3219 3222 3224 3226 3226 3228 3229 3230
3152 3153 3155 3159 3159 3154 3149 3150 3143 3142 3141 3140 3140 3141 3142 3146 3150 3155 3160 3164 3168 3171 3174 3176 3179 3181 3183 3186 3189 3190 3192 3195 3199 3201 3204 3205 3207 3209 3211 3213 3215 3218 3220 3221 3223 3224 3225 3225 3226
3148 3149 3151 3156 3157 3149 3148 3145 3141 3140 3138 3137 3136 3136 3139 3142 3146 3150 3155 3161 3165 3168 3171 3171 3172 3178 3179 3183 3185 3187 3189 3191 3194 3197 3200 3202 3205 3206 3208 3210 3212 3214 3216 3218 3219 3220 3221 3222 3223
3144 3144 3147 3146 3148 3148 3144 3141 3137 3137 3135 3135 3135 3135 3134 3137 3142 3147 3152 3158 3161 3164 3167 3169 3170 3174 3177 3180 3181 3183 3185 3188 3190 3193 3195 3198 3201 3203 3205 3206 3208 3210 3212 3214 3215 3217 3219 3219 3220
3137 3140 3143 3144 3148 3149 3141 3139 3137 3134 3134 3134 3134 3135 3133 3134 3139 3143 3149 3153 3157 3161 3164 3166 3168 3169 3173 3176 3178 3180 3181 3183 3186 3188 3190 3192 3196 3199 3201 3203 3204 3205 3207 3210 3211 3213 3215 3216 3217
3134 3134 3137 3139 3140 3141 3144 3135 3134 3133 3132 3132 3134 3134 3133 3133 3137 3142 3146 3151 3155 3158 3161 3164 3165 3167 3169 3172 3173 3176 3177 3179 3181 3183 3185 3188 3190 3193 3195 3198 3200 3202 3203 3204 3206 3208 3210 3212 3213
3131 3130 3131 3133 3136 3136 3136 3133 3132 3132 3131 3130 3132 3134 3134 3135 3136 3141 3146 3149 3152 3154 3158 3161 3163 3165 3167 3168 3169 3171 3173 3175 3177 3179 3181 3183 3184 3187 3189 3192 3194 3197 3199 3201 3201 3204 3207 3208 3208
Wind_Speed
2 4 8 7 4 5 9 5 7 6 5 3 5 3 2 5 2 1 1 19 18 17 16 15 12 12 12 12 11 9 7 8 8 8 10 11 11 11 11 10 10 10 11 12 13 14 14 15 14
2 3 5 3 5 9 7 9 11 5 2 2 4 3 5 9 7 8 0 18 19 15 15 15 11 9 10 10 10 7 5 8 9 8 10 12 12 11 11 11 10 10 12 13 15 16 16 14 14
4 3 2 2 3 6 5 9 7 6 7 5 4 5 6 10 12 10 4 18 18 15 15 15 12 9 10 10 8 7 8 11 11 8 8 14 13 11 12 12 11 12 13 15 16 15 13 14 15
5 4 2 5 10 8 7 13 14 8 5 0 4 9 10 8 10 11 8 19 17 16 16 14 11 10 9 10 8 7 8 10 10 9 11 13 13 13 14 13 12 14 15 17 16 15 16 14 13
5 4 2 4 7 8 4 9 11 10 1 2 9 11 5 3 7 10 13 18 17 16 16 14 13 11 10 10 8 9 9 10 10 10 13 13 14 15 16 14 15 16 17 17 16 16 16 14 12
17 10 8 11 15 6 4 7 16 5 1 4 10 9 4 5 10 13 16 17 16 15 14 14 13 11 10 10 9 10 10 10 11 12 14 13 15 15 16 16 17 18 18 16 15 15 16 15 16
15 16 7 11 10 8 6 12 13 4 2 5 8 8 9 6 11 13 15 15 15 16 17 15 14 11 9 8 8 9 11 11 12 13 14 15 15 15 16 17 19 19 18 17 21 22 18 17 18
15 13 14 14 5 6 1 4 12 7 3 1 7 7 4 7 10 9 10 13 16 17 15 16 14 12 10 9 7 7 10 13 13 15 15 16 16 16 18 19 20 19 17 17 16 17 18 18 16
13 10 10 7 9 8 7 5 10 8 6 2 6 3 4 10 14 13 8 6 11 14 14 15 16 15 14 13 10 10 13 14 15 16 16 16 17 18 20 20 21 20 17 17 21 16 18 19 18
7 8 6 7 6 10 12 14 14 6 5 4 9 3 4 9 12 11 11 13 9 9 13 13 14 15 15 15 13 13 14 16 17 16 15 15 18 19 22 20 21 20 19 18 20 17 18 16 16
3 6 3 6 4 10 12 10 15 8 7 5 8 3 5 9 12 12 11 14 14 10 7 10 14 16 15 16 16 17 17 17 18 18 15 13 17 19 20 21 21 20 18 18 18 14 17 12 10
4 4 4 7 3 9 16 7 15 8 9 7 3 3 5 14 16 16 14 13 11 9 6 4 6 11 14 17 18 20 20 20 19 18 15 15 15 17 19 20 20 19 17 15 15 11 14 12 8
6 5 0 6 3 6 11 15 14 12 8 8 4 5 8 14 15 17 16 14 16 9 5 2 8 9 13 19 21 22 20 21 22 19 17 16 13 17 20 19 19 17 16 15 14 12 11 9 7
3 3 0 2 3 1 6 9 17 12 8 12 5 10 10 11 12 12 11 10 13 14 8 4 1 9 14 18 22 20 21 21 22 21 18 18 18 17 19 18 17 17 16 14 14 10 7 9 7
5 2 5 6 5 2 4 9 13 11 13 15 8 13 14 13 13 10 8 7 9 12 6 4 4 10 13 15 17 18 20 20 21 23 21 19 21 18 20 19 18 16 15 15 16 10 8 8 6
6 9 8 6 7 5 6 10 13 11 9 17 14 15 15 13 9 7 5 3 5 9 5 4 10 13 13 14 17 19 20 17 15 17 16 17 18 19 20 20 19 16 15 13 16 11 10 9 6
10 8 10 11 15 12 10 10 13 15 16 16 16 9 16 16 15 12 8 4 1 4 3 5 10 14 14 14 14 15 16 16 16 17 17 17 18 18 20 20 19 19 16 14 12 11 9 9 6
3 9 16 21 16 12 13 11 10 14 20 17 17 14 14 15 14 10 8 6 3 1 4 8 14 11 10 11 11 12 14 15 16 17 18 18 18 19 20 21 20 19 18 16 16 13 13 12 9
16 16 20 12 9 8 7 4 10 11 15 17 24 19 15 15 12 11 10 7 7 4 5 6 11 12 9 9 8 10 12 15 17 16 17 18 18 18 20 21 21 20 18 16 16 15 11 12 11
16 16 16 9 9 6 8 8 9 17 16 16 18 19 22 12 15 12 15 12 9 6 9 9 9 8 10 12 10 10 13 16 15 17 18 19 18 19 22 22 22 21 18 16 16 17 17 15 12
17 18 16 14 10 11 9 14 15 17 17 19 23 17 30 23 15 14 17 15 13 9 8 10 9 8 10 13 15 14 15 17 17 14 16 20 19 18 22 22 21 22 17 15 18 17 17 16 16
18 13 15 15 17 10 7 7 16 15 17 22 19 24 23 29 28 21 19 18 14 9 10 11 12 10 10 14 15 15 13 15 15 14 16 16 18 15 14 19 22 25 22 14 16 17 19 20 20
14 16 9 10 16 19 15 9 14 22 20 19 19 18 26 25 28 24 22 19 16 13 12 9 11 10 10 10 13 16 15 16 17 18 20 22 17 17 16 13 29 26 20 17 15 17 19 20 20
12 15 9 8 13 7 25 15 19 12 12 8 8 13 19 27 21 26 23 21 18 16 15 17 14 11 9 9 10 13 16 17 17 19 19 19 18 18 16 11 15 23 23 18 20 20 18 21 17
13 9 3 1 2 8 13 8 20 21 12 11 11 10 13 22 22 26 25 23 19 17 15 17 19 18 18 13 14 11 12 18 19 19 18 19 18 16 17 16 17 21 22 23 23 20 18 16 14
12 16 12 7 5 7 6 8 16 21 22 15 10 7 14 20 22 20 22 22 16 13 12 19 14 8 10 16 10 10 12 16 20 21 19 18 17 17 19 20 21 22 23 23 22 21 19 19 18
21 18 16 14 4 2 6 11 25 18 16 10 5 5 8 19 20 18 18 19 16 14 12 14 16 11 11 12 11 13 14 15 16 20 22 21 18 18 19 20 22 23 23 21 21 20 21 20 19
24 24 9 8 4 4 9 14 23 17 21 14 7 4 4 13 19 22 19 17 15 13 13 13 12 9 12 14 15 14 14 16 16 18 21 21 20 20 21 24 25 23 22 21 22 21 21 19 18
7 18 17 12 7 8 2 8 13 15 10 6 7 3 1 7 16 13 16 15 14 12 11 13 13 15 16 17 17 17 17 19 18 20 20 21 22 23 24 23 24 22 22 23 23 21 20 18 19
18 15 22 15 9 8 6 16 13 12 12 4 7 6 5 5 10 14 15 17 19 18 17 15 15 16 20 21 20 20 19 22 21 19 19 20 21 25 25 26 27 25 25 26 23 21 21 21 20
Wind_Direction
144 52 106 72 106 115 91 88 136 120 95 106 138 94 288 211 209 260 240 168 166 160 161 155 149 149 150 151 150 158 164 159 165 169 177 169 156 148 144 133 113 103 105 108 107 107 108 102 98
54 42 82 44 116 128 104 133 146 170 151 158 172 263 268 243 256 245 206 178 169 164 169 168 162 162 157 159 156 156 162 164 155 153 169 175 164 158 145 130 119 115 111 112 111 104 97 97 94
74 52 65 79 106 117 118 156 164 145 132 148 242 306 271 263 239 231 202 190 181 173 175 172 170 170 164 161 159 149 144 146 146 130 145 158 154 148 139 136 129 121 120 116 105 100 102 102 101
24 19 13 97 124 105 123 152 145 158 198 172 327 314 295 260 235 225 208 189 190 182 178 177 175 173 173 170 163 154 142 145 144 136 124 139 143 144 139 137 131 124 123 111 106 105 103 108 101
12 338 315 197 144 131 184 170 170 185 195 298 334 326 295 242 192 170 180 184 187 181 174 176 181 177 174 167 171 169 146 150 152 146 135 133 138 140 136 140 135 128 117 110 107 108 108 111 100
44 8 268 207 154 130 193 170 180 205 342 351 4 10 356 171 149 161 173 185 190 179 181 180 182 180 178 172 188 173 149 142 149 145 137 138 140 140 141 141 134 126 119 112 101 107 109 94 92
9 18 10 153 125 147 156 175 206 187 247 13 23 355 322 193 155 163 178 184 193 188 181 186 188 183 180 168 192 153 158 150 154 150 144 146 145 142 145 142 135 128 122 109 101 91 98 97 93
6 13 37 146 131 128 78 175 190 173 208 19 6 359 63 147 132 152 185 198 207 208 204 203 197 195 198 188 199 163 169 158 163 152 149 149 148 145 147 148 136 131 121 111 108 101 100 97 91
356 13 23 65 232 232 273 162 184 175 188 331 347 45 117 124 107 102 111 177 209 212 204 204 200 204 210 208 196 186 165 163 155 152 154 151 150 150 151 149 139 134 125 116 106 114 107 99 91
17 22 41 13 213 249 232 209 202 199 201 53 26 129 155 146 125 111 98 99 118 162 192 204 210 220 214 212 195 181 161 156 153 158 151 149 149 156 155 150 145 140 132 125 117 118 113 101 90
79 43 34 352 279 213 201 211 197 188 207 106 34 30 160 140 120 108 99 101 98 98 152 192 209 212 207 204 190 175 165 162 163 155 150 144 150 160 161 155 150 148 141 136 128 121 115 106 97
53 1 11 6 296 216 226 253 205 167 157 164 131 38 132 128 111 104 99 99 80 91 91 139 168 211 209 201 191 181 172 161 162 156 153 153 147 172 168 162 158 157 145 136 134 124 117 112 107
358 330 16 52 38 200 224 243 212 195 176 174 146 132 151 147 116 104 100 78 63 65 59 128 203 213 208 201 195 185 178 168 170 171 166 159 160 179 174 173 168 155 152 149 143 135 131 119 122
347 252 340 13 20 273 212 221 208 230 236 181 152 158 154 155 127 106 91 67 51 42 41 54 173 220 193 191 192 188 177 176 180 181 179 164 169 190 179 179 174 165 162 157 160 141 140 138 133
334 299 294 311 347 6 221 220 232 244 215 181 185 170 169 159 131 118 94 72 42 29 47 57 55 145 167 179 189 186 174 180 198 185 195 186 189 186 185 184 182 175 172 164 163 163 171 158 140
288 303 296 306 298 293 239 238 244 250 211 198 191 176 188 173 164 143 105 72 36 21 62 85 116 131 138 149 168 176 178 194 194 187 180 187 188 190 189 188 185 186 183 184 179 178 179 188 161
280 288 316 312 310 257 249 254 251 242 229 205 199 217 193 180 181 160 131 133 27 19 138 141 140 131 133 137 144 159 168 169 174 172 181 185 191 193 193 194 191 192 196 195 197 190 195 208 190
316 309 315 313 314 265 255 257 247 244 226 224 214 219 214 187 170 167 164 173 213 147 163 166 179 172 161 168 171 171 169 176 183 173 175 182 190 197 198 197 196 199 202 203 208 205 215 221 223
277 294 310 311 290 239 239 251 230 233 229 227 211 220 225 184 179 175 195 205 211 202 186 169 187 201 202 183 184 181 181 178 178 182 185 189 196 201 204 202 202 206 207 212 221 224 234 232 249
270 284 304 300 261 235 243 261 254 250 254 241 233 232 219 229 221 200 204 191 165 164 194 190 173 194 208 206 191 183 193 188 192 196 201 205 212 216 212 207 207 209 212 222 230 234 241 253 257
261 270 284 289 263 246 273 291 270 272 254 248 231 237 219 224 215 213 208 187 197 188 189 200 187 195 215 211 211 201 195 192 194 197 199 207 207 222 221 220 208 206 209 225 236 237 242 250 261
263 283 287 260 250 235 257 284 295 296 284 262 251 234 226 228 225 221 211 191 185 190 188 192 197 193 216 217 219 219 204 202 209 204 198 202 203 214 211 210 211 211 208 217 235 235 245 259 262
259 304 296 265 246 253 268 256 294 295 291 295 262 252 229 233 229 215 218 194 177 194 196 198 192 189 218 232 223 222 221 207 211 215 206 213 220 226 223 235 208 210 214 220 235 242 254 264 255
284 305 273 244 237 263 266 255 291 278 314 316 250 249 226 219 223 215 209 206 192 207 220 215 224 211 233 249 238 225 223 220 213 209 217 220 223 222 228 212 201 211 219 229 242 245 250 249 253
260 261 116 343 180 233 277 219 273 304 296 310 279 263 236 225 222 214 212 197 204 210 214 223 224 233 244 250 254 244 231 227 223 220 220 226 219 224 222 221 220 220 232 237 241 241 236 238 244
258 249 208 202 200 245 217 240 273 302 299 306 279 247 217 226 221 217 212 222 220 214 225 248 251 226 238 230 236 241 237 233 232 230 226 222 224 217 218 219 222 231 236 238 238 241 241 244 248
246 240 249 240 188 271 250 257 281 303 328 315 231 282 272 218 210 204 192 188 199 218 238 257 253 225 238 234 242 248 243 239 240 239 234 227 230 224 219 223 223 228 234 237 240 245 249 249 250
242 245 212 204 134 231 270 274 273 308 312 303 243 311 274 224 203 207 211 212 214 223 239 254 235 242 243 244 241 248 250 250 243 244 246 242 236 231 231 235 232 229 229 234 236 238 247 251 249
227 221 226 237 207 167 235 270 297 313 318 258 248 266 209 168 201 203 205 198 188 183 208 228 228 232 242 247 254 248 245 248 251 247 247 248 243 240 235 234 235 236 236 232 238 237 241 251 254
259 266 242 220 217 215 241 269 293 307 318 274 234 213 93 128 157 188 206 216 228 233 239 242 240 236 237 235 244 243 238 239 242 247 249 251 249 243 236 233 238 237 236 243 247 245 247 250 253